Presure
181 168 163 180 184 202 177 226 152 236 254 212 255 233 253 272 200 269 157 215 169 185 152 151 147 147 164 121 160 160 151 154 128 154 125 163 159 160 166 173 179 252 251 202 172
170 163 183 183 184 188 188 179 207 195 185 185 256 162 221 244 263 228 182 236 219 139 133 187 155 161 149 155 152 162 154 152 164 164 127 139 163 160 162 167 177 204 194 182 171
164 150 175 195 190 188 195 217 226 152 232 221 215 197 146 272 160 281 266 239 253 196 192 194 134 178 143 182 165 165 154 157 158 157 165 139 131 164 161 161 168 170 178 187 181
161 166 178 173 177 224 203 185 215 235 223 238 248 243 273 263 268 250 291 303 258 276 201 183 176 152 169 165 175 169 155 123 161 162 155 126 114 121 156 160 161 161 164 166 161
166 180 161 174 165 161 201 198 220 224 227 217 241 227 258 280 264 282 190 274 154 284 327 201 180 190 146 179 177 171 158 159 165 160 161 159 127 132 138 156 158 161 163 162 166
135 181 199 174 192 212 217 212 201 238 238 262 229 274 208 205 233 281 195 271 159 279 158 298 256 203 196 184 174 170 162 157 182 160 157 158 158 159 116 121 159 156 157 159 154
165 140 164 190 183 206 197 213 221 182 154 247 263 303 267 146 279 268 281 127 279 264 312 297 349 176 179 190 184 140 168 156 175 161 157 158 161 154 157 130 118 162 155 152 156
158 135 173 202 189 212 201 198 208 194 262 236 265 303 293 290 283 271 276 287 281 276 268 122 182 326 205 199 197 93 176 168 171 166 158 158 140 153 156 166 148 158 156 158 148
167 163 181 181 204 204 221 214 194 237 264 252 299 303 296 300 298 286 269 284 287 285 299 309 127 77 218 198 192 190 142 143 154 156 163 161 162 156 140 151 168 130 140 146 160
184 151 181 183 186 196 199 224 232 238 247 308 287 308 298 318 313 290 279 280 298 297 302 305 314 307 88 90 190 200 191 85 90 148 169 155 160 145 161 157 158 170 133 119 117
174 191 184 190 192 209 225 244 236 211 239 324 321 315 310 297 314 301 286 289 298 305 310 318 311 382 439 312 77 179 70 164 111 158 167 163 158 159 163 163 154 155 169 151 148
179 153 147 182 203 198 220 230 287 262 340 323 317 319 315 302 290 322 317 308 305 310 317 327 325 253 423 413 193 178 79 100 176 140 184 172 150 164 166 157 163 162 155 166 170
177 169 189 184 190 201 220 238 279 276 333 327 318 320 315 315 314 312 328 336 336 336 337 327 132 380 411 405 195 191 185 175 101 185 158 182 160 161 163 164 120 162 154 153 152
171 173 187 183 191 194 230 211 280 276 334 349 337 334 323 319 325 330 343 348 360 323 419 423 403 138 389 385 367 198 187 182 98 91 121 145 164 159 173 167 163 156 159 157 157
125 153 184 191 185 203 221 254 243 339 249 281 311 361 343 324 325 331 333 305 309 441 446 339 431 426 416 183 397 179 194 95 178 173 179 93 175 154 175 172 166 105 154 157 154
141 179 189 189 218 208 251 261 281 332 375 333 322 349 354 280 335 349 367 302 355 101 435 201 418 416 404 78 210 91 183 185 104 176 155 185 136 179 174 170 165 166 161 134 157
130 183 188 195 190 193 264 248 334 383 352 332 283 344 373 343 362 298 287 286 260 442 419 404 412 399 398 365 302 321 89 159 127 182 175 83 83 167 167 173 140 168 161 119 159
169 191 183 219 238 261 317 260 259 371 281 364 358 353 360 380 374 398 411 412 436 424 404 393 72 395 399 200 329 114 246 95 86 111 156 179 113 160 158 171 176 155 146 165 161
184 187 213 200 208 297 305 315 339 367 353 363 353 354 346 379 405 397 407 434 412 407 397 384 407 380 393 385 347 341 134 186 84 88 98 154 131 84 101 163 138 166 154 166 164
174 197 207 212 250 269 267 266 371 282 360 352 361 360 352 358 382 443 424 408 400 394 385 382 402 365 373 399 368 339 340 240 235 198 202 92 103 103 155 146 133 172 167 109 166
191 183 223 244 302 279 345 336 345 353 363 349 364 361 350 352 396 423 402 391 391 386 384 384 414 348 338 410 391 195 311 271 180 200 199 176 112 169 144 108 119 118 172 136 137
212 200 232 240 412 351 381 304 356 372 364 353 347 347 364 366 386 415 396 383 384 386 378 374 353 327 351 357 314 322 339 294 68 233 193 192 183 177 157 155 112 98 109 167 166
194 212 235 230 334 299 379 369 377 358 347 354 346 350 369 367 397 403 390 374 376 376 366 367 377 321 312 313 335 311 329 327 115 148 178 187 174 170 96 160 152 122 157 171 173
231 235 271 369 328 363 389 388 364 348 340 347 348 355 366 371 370 393 390 362 366 365 361 366 352 314 310 293 301 333 186 318 271 264 188 232 144 182 176 137 82 97 116 88 123
217 236 275 246 426 388 405 390 364 354 352 351 354 349 357 370 397 387 404 354 352 360 356 364 329 315 304 301 298 315 332 218 293 234 72 176 153 197 162 174 152 152 104 90 91
223 276 309 368 396 409 377 359 373 369 363 354 352 351 365 378 402 381 400 351 347 354 360 357 303 315 322 308 301 294 287 341 312 303 235 253 233 213 193 183 162 169 111 170 134
236 249 304 283 355 381 365 356 362 370 364 361 367 367 384 395 398 382 390 358 345 349 355 345 342 310 321 315 322 304 281 333 337 272 177 271 200 108 149 166 94 105 178 163 147
Wind_Speed
44 35 46 47 48 62 47 62 52 63 57 48 52 50 53 54 69 72 88 101 94 94 72 71 70 65 75 53 69 67 60 63 49 58 43 54 51 48 40 37 38 34 42 50 54
43 47 53 48 49 54 52 50 60 55 55 53 54 58 57 57 62 71 80 81 111 65 61 93 79 74 67 72 66 69 68 71 66 60 48 50 53 51 47 41 37 31 37 47 51
30 42 46 65 63 64 70 71 70 61 66 63 59 57 59 56 77 60 71 86 82 105 102 101 61 91 62 89 77 77 73 81 66 64 58 53 46 54 51 49 42 36 33 40 41
39 46 63 49 52 72 73 55 73 72 69 73 64 64 53 57 57 69 70 72 80 82 105 101 90 73 86 80 90 83 80 50 73 66 66 50 42 43 56 50 44 46 44 40 41
52 69 41 64 62 62 76 80 78 75 74 70 71 62 57 53 65 68 69 77 49 82 80 106 102 105 72 94 94 85 83 80 78 69 68 63 50 50 49 53 51 48 43 41 40
50 73 80 69 81 85 84 87 78 85 78 72 68 60 56 64 66 73 56 80 72 85 59 89 120 116 109 100 90 90 90 81 91 72 68 66 64 61 47 48 56 53 47 45 46
63 51 54 84 81 89 85 88 90 65 59 77 68 53 52 70 66 71 74 70 83 85 78 87 87 95 95 110 103 75 96 82 90 76 73 69 64 64 61 54 45 57 53 51 50
58 56 73 91 88 89 93 91 94 70 81 81 68 50 44 61 63 73 71 73 81 86 90 55 93 88 123 118 113 46 99 90 90 83 80 70 66 76 64 65 62 61 57 56 52
71 67 83 86 97 87 93 94 80 91 82 78 57 49 49 54 59 64 72 69 78 82 81 82 55 44 106 122 116 111 74 77 79 79 86 77 81 79 62 69 66 51 53 55 59
85 52 87 91 91 101 102 101 94 85 85 67 62 51 52 47 51 59 66 71 74 76 80 82 87 68 50 46 115 111 104 34 36 77 89 78 85 70 75 73 70 66 52 40 39
80 99 100 106 103 112 109 104 99 92 91 64 57 49 50 50 46 57 64 65 69 75 78 78 88 73 72 71 32 112 20 92 55 84 91 89 90 82 79 79 70 68 67 63 59
94 66 72 100 110 109 115 113 99 88 67 66 60 53 48 51 53 55 62 65 73 74 80 81 81 73 68 74 126 115 41 49 102 70 101 98 82 89 83 76 77 73 66 67 68
96 80 112 104 109 104 118 116 106 91 75 64 60 58 53 53 54 55 59 63 66 68 71 80 24 54 68 78 129 119 116 107 46 112 86 107 95 89 86 83 58 75 68 65 64
92 94 116 110 114 116 118 115 108 95 79 68 59 55 55 56 58 61 60 61 64 60 58 65 57 25 71 81 93 127 120 121 44 36 59 80 97 90 102 90 82 70 72 70 68
59 84 118 122 111 122 121 114 107 90 91 77 63 56 51 54 56 61 57 54 56 47 52 36 53 64 73 36 84 88 132 30 116 111 113 29 102 85 103 93 87 58 71 74 71
72 114 122 125 122 124 124 114 107 95 69 69 64 60 55 52 58 59 59 52 52 42 48 25 56 68 67 19 52 4 127 131 30 120 102 116 75 113 103 97 90 88 82 63 78
64 120 123 124 119 117 121 111 104 73 75 70 75 62 61 59 60 57 61 58 40 44 47 49 58 65 72 85 89 95 24 110 40 136 117 44 45 99 100 104 74 94 86 57 82
97 122 120 126 128 130 124 112 107 76 90 65 62 60 62 61 61 61 50 42 41 44 47 51 20 61 71 40 90 33 145 36 38 24 83 111 62 88 96 106 102 81 78 88 82
119 127 129 131 127 135 123 114 106 74 72 64 60 56 61 62 59 53 45 32 38 43 48 54 57 63 69 79 95 101 61 106 32 35 37 69 72 13 55 95 68 94 80 90 86
109 127 128 129 134 130 119 117 70 99 68 63 59 53 56 57 56 36 30 32 37 42 48 52 57 66 58 72 88 101 105 146 144 139 131 45 68 63 94 79 67 104 95 50 93
127 118 133 144 139 133 102 94 81 75 69 62 58 54 53 55 49 33 28 32 34 43 51 53 59 65 72 59 78 64 101 148 99 139 134 108 61 102 92 67 62 58 106 71 75
127 131 139 139 69 99 69 110 77 69 64 61 55 54 51 50 42 32 28 30 34 43 52 53 72 75 54 48 82 70 97 125 12 142 127 127 122 115 94 95 41 33 55 106 91
130 131 137 126 121 126 67 65 62 63 66 63 57 56 52 49 42 30 29 30 34 43 53 57 71 77 74 71 58 90 94 105 32 72 91 121 113 111 40 111 98 61 99 106 102
140 143 154 121 123 90 57 56 56 59 66 66 61 58 57 48 41 29 28 32 37 46 55 58 75 85 86 92 88 77 65 107 126 152 98 142 72 123 118 89 27 33 57 37 63
134 148 151 133 54 62 53 49 51 56 60 65 65 59 58 53 43 29 26 35 39 47 56 66 78 94 93 91 94 80 85 80 112 122 7 86 72 131 108 123 100 105 41 31 38
138 159 148 112 58 45 58 58 53 58 59 59 60 61 64 57 34 28 25 39 43 46 57 69 81 85 92 98 95 93 94 82 111 119 115 147 136 134 134 130 104 123 67 117 76
149 149 143 126 95 56 60 61 59 60 53 56 59 58 57 42 32 28 25 39 47 49 57 69 86 86 86 89 81 84 95 67 85 103 84 142 96 47 76 102 26 41 130 113 86
Wind_Direction
346 319 321 324 325 340 321 330 280 322 314 284 294 286 274 263 245 248 243 240 242 237 243 237 244 241 232 239 232 230 229 229 232 227 232 233 236 231 226 232 236 227 223 222 220
324 329 339 338 332 316 328 299 324 302 295 282 296 265 265 268 258 247 244 236 237 243 241 229 238 235 239 232 237 229 230 232 227 224 234 234 231 234 226 225 227 222 216 216 224
318 288 332 340 338 336 333 327 326 271 316 304 293 278 261 268 252 256 249 241 244 232 229 228 240 231 238 227 228 227 229 233 227 223 222 232 233 230 230 224 222 219 220 226 227
322 324 338 330 333 332 329 319 325 324 317 313 304 298 279 271 264 256 246 244 240 239 236 234 241 237 232 230 226 224 231 234 229 224 225 233 233 234 235 230 225 221 218 217 220
335 337 320 339 310 311 330 329 324 321 316 313 308 287 287 269 260 247 249 242 241 237 238 237 242 233 238 230 227 224 231 235 232 226 222 224 229 232 237 233 230 227 224 221 222
294 337 338 327 336 332 330 328 325 323 319 314 299 294 271 261 254 253 244 241 249 237 241 237 228 227 222 230 227 225 231 237 226 228 227 223 225 226 230 228 231 233 228 225 227
332 292 331 337 335 333 329 327 325 313 296 314 306 292 281 265 251 253 248 245 237 242 242 236 242 236 234 227 226 233 227 234 227 227 233 223 224 227 225 231 228 226 230 230 228
327 292 329 336 335 330 329 328 327 315 317 317 308 296 280 265 253 248 250 247 240 238 238 240 233 241 220 220 221 227 223 227 227 225 232 228 229 230 223 225 232 227 229 227 235
329 325 333 334 334 331 328 326 321 323 321 317 305 296 282 268 254 249 249 248 246 242 243 245 237 241 225 220 224 222 231 228 229 228 227 229 227 230 227 228 226 231 237 232 229
333 312 333 335 337 335 334 328 326 325 321 316 310 297 288 272 259 253 250 249 251 248 246 244 239 247 240 228 226 218 215 219 241 234 223 234 229 229 226 227 228 224 232 227 228
331 335 335 335 336 333 330 330 328 326 321 317 307 302 293 283 271 255 253 253 253 253 251 250 239 244 238 233 231 223 238 231 218 229 225 229 231 234 228 225 231 230 226 235 237
334 319 314 336 335 334 333 329 331 326 327 316 312 306 297 286 275 270 261 255 255 251 251 249 241 240 237 228 214 223 243 232 219 229 219 225 236 234 231 230 229 230 231 231 231
334 330 334 335 335 329 332 331 331 328 327 316 314 307 299 288 281 275 269 262 259 256 253 247 254 246 234 225 215 219 219 223 231 221 222 219 230 235 234 230 232 230 233 234 238
334 334 333 334 334 333 330 328 331 329 327 319 312 304 296 285 280 275 272 267 265 255 254 249 236 251 223 222 216 215 218 219 218 223 222 226 225 232 232 230 232 232 230 233 236
309 324 332 330 333 330 329 328 329 328 323 319 314 302 290 285 280 275 267 261 257 261 244 243 230 224 220 223 216 216 213 228 220 226 223 214 221 233 230 231 232 235 235 234 235
318 332 329 329 330 329 330 327 328 328 312 317 312 301 293 289 280 276 275 259 260 239 242 248 222 218 214 221 223 85 214 217 229 224 225 219 226 223 227 230 229 230 232 235 237
314 329 327 326 329 329 328 326 329 310 319 319 316 303 294 288 284 272 265 262 256 243 235 227 223 218 213 210 212 212 219 218 220 221 222 224 231 224 227 231 227 229 232 229 237
329 327 328 329 330 331 331 327 328 317 326 308 303 301 298 292 289 293 288 276 254 240 227 222 241 217 211 216 211 209 206 210 214 163 217 224 223 223 225 229 228 232 229 236 240
327 325 329 327 328 331 332 329 327 312 314 307 304 299 297 300 300 294 285 256 243 235 228 219 216 214 210 207 210 208 199 213 247 249 227 214 218 153 228 230 230 232 234 237 240
331 325 328 329 333 332 329 328 307 326 306 308 302 300 298 301 303 294 272 251 235 232 226 217 209 207 210 209 208 210 211 213 214 216 215 226 236 242 224 230 230 231 233 228 237
323 330 333 333 330 331 327 323 317 308 297 307 307 305 301 297 304 293 266 250 236 227 223 212 201 199 206 214 209 213 212 211 217 214 216 222 235 224 232 240 231 235 233 227 234
329 325 334 337 312 327 314 326 312 290 294 306 312 307 303 299 304 292 264 244 231 220 215 207 190 202 190 197 207 211 214 214 256 214 216 218 220 223 227 233 222 213 241 238 238
326 328 335 333 330 330 313 306 292 302 308 304 310 307 310 310 308 293 258 239 226 213 209 201 194 196 200 198 199 211 213 213 229 220 216 218 218 223 227 229 231 238 238 238 239
339 338 336 329 328 321 301 288 297 299 303 304 306 309 309 310 301 292 254 232 221 208 206 196 190 190 199 203 203 208 221 211 213 214 217 216 208 218 223 227 231 239 229 229 232
336 337 336 336 312 311 299 286 292 292 293 295 298 305 305 306 304 284 259 226 219 211 203 194 187 194 202 204 207 207 209 217 212 214 280 219 221 213 221 225 228 230 202 224 224
337 337 333 329 313 295 310 311 287 288 291 295 295 296 297 298 285 272 264 221 217 212 206 197 199 198 200 206 209 210 213 216 216 214 217 215 213 215 217 222 224 231 231 236 240
340 338 333 333 324 310 309 306 301 296 295 293 292 292 296 294 282 265 258 219 219 210 207 200 196 201 198 205 202 206 214 221 220 217 212 216 215 210 216 218 185 202 228 234 233